TimeEST,TemperatureF,Dew PointF,Humidity,Sea Level PressureIn,VisibilityMPH,Wind Direction,Wind SpeedMPH,Gust SpeedMPH,PrecipitationIn,Events,Conditions,WindDirDegrees,DateUTC
12:53 AM,32.0,19.0,59,30.12,10.0,North,15.0,19.6,N/A,,Overcast,10,2014-02-03 05:53:00
1:53 AM,30.9,15.1,52,30.14,10.0,North,9.2,-,N/A,,Overcast,350,2014-02-03 06:53:00
2:53 AM,30.9,15.1,52,30.15,10.0,North,11.5,-,N/A,,Overcast,350,2014-02-03 07:53:00
3:53 AM,28.9,18.0,64,30.16,10.0,NE,8.1,-,N/A,,Overcast,50,2014-02-03 08:53:00
4:53 AM,28.9,18.0,64,30.16,10.0,NE,6.9,-,N/A,,Overcast,50,2014-02-03 09:53:00
5:53 AM,28.9,17.1,61,30.17,10.0,North,8.1,-,N/A,,Overcast,10,2014-02-03 10:53:00
6:53 AM,28.9,17.1,61,30.19,10.0,NE,6.9,-,N/A,,Overcast,40,2014-02-03 11:53:00
7:53 AM,28.9,17.1,61,30.20,10.0,North,6.9,-,N/A,,Overcast,10,2014-02-03 12:53:00
8:53 AM,28.0,17.1,63,30.20,10.0,Variable,5.8,-,N/A,,Clear,0,2014-02-03 13:53:00
9:53 AM,28.9,17.1,61,30.22,10.0,NNE,5.8,-,N/A,,Overcast,30,2014-02-03 14:53:00
10:53 AM,28.9,17.1,61,30.23,10.0,Variable,5.8,-,N/A,,Overcast,0,2014-02-03 15:53:00
11:53 AM,30.0,14.0,51,30.22,10.0,NNW,6.9,-,N/A,,Clear,340,2014-02-03 16:53:00
12:53 PM,30.9,15.1,52,30.20,10.0,NNE,3.5,-,N/A,,Clear,30,2014-02-03 17:53:00
1:53 PM,30.9,14.0,50,30.19,10.0,NNW,3.5,-,N/A,,Clear,340,2014-02-03 18:53:00
2:53 PM,32.0,14.0,48,30.18,10.0,NNE,5.8,-,N/A,,Clear,30,2014-02-03 19:53:00
3:53 PM,32.0,14.0,48,30.19,10.0,NNE,3.5,-,N/A,,Clear,30,2014-02-03 20:53:00
4:53 PM,30.0,16.0,56,30.20,10.0,North,3.5,-,N/A,,Overcast,10,2014-02-03 21:53:00
5:53 PM,26.1,17.1,69,30.22,10.0,Calm,Calm,-,N/A,,Mostly Cloudy,0,2014-02-03 22:53:00
6:53 PM,24.1,17.1,75,30.24,10.0,Calm,Calm,-,N/A,,Overcast,0,2014-02-03 23:53:00
7:53 PM,26.1,17.1,69,30.25,10.0,Calm,Calm,-,N/A,,Overcast,0,2014-02-04 00:53:00
8:53 PM,25.0,17.1,72,30.28,10.0,Calm,Calm,-,N/A,,Mostly Cloudy,0,2014-02-04 01:53:00
9:53 PM,24.1,15.1,69,30.30,10.0,Calm,Calm,-,N/A,,Scattered Clouds,0,2014-02-04 02:53:00
10:53 PM,21.0,12.9,71,30.30,10.0,Calm,Calm,-,N/A,,Clear,0,2014-02-04 03:53:00
11:53 PM,18.0,12.0,78,30.32,10.0,Calm,Calm,-,N/A,,Clear,0,2014-02-04 04:53:00